Year,Month,Day,Hour,Minute,Value (Times are PST for windspeed in km/hr)
2020,10,10,00,00,5.20
2020,10,10,00,01,6.40
2020,10,10,00,02,6.40
2020,10,10,00,03,2.60
2020,10,10,00,04,7.50
2020,10,10,00,05,4.50
2020,10,10,00,06,2.00
2020,10,10,00,07,2.60
2020,10,10,00,08,5.50
2020,10,10,00,09,6.60
2020,10,10,00,10,7.30
2020,10,10,00,11,3.50
2020,10,10,00,12,3.50
2020,10,10,00,13,2.90
2020,10,10,00,14,3.50
2020,10,10,00,15,4.90
2020,10,10,00,16,8.20
2020,10,10,00,17,4.60
2020,10,10,00,18,2.70
2020,10,10,00,19,3.30
2020,10,10,00,20,4.80
2020,10,10,00,21,4.40
2020,10,10,00,22,4.40
2020,10,10,00,23,4.90
2020,10,10,00,24,2.10
2020,10,10,00,25,4.60
2020,10,10,00,26,3.50
2020,10,10,00,27,3.60
2020,10,10,00,28,2.10
2020,10,10,00,29,2.50
2020,10,10,00,30,2.30
2020,10,10,00,31,4.20
2020,10,10,00,32,5.00
2020,10,10,00,33,6.10
2020,10,10,00,34,3.70
2020,10,10,00,35,2.60
2020,10,10,00,36,3.30
2020,10,10,00,37,3.80
2020,10,10,00,38,4.00
2020,10,10,00,39,3.00
2020,10,10,00,40,4.30
2020,10,10,00,41,3.70
2020,10,10,00,42,5.30
2020,10,10,00,43,2.70
2020,10,10,00,44,3.30
2020,10,10,00,45,4.10
2020,10,10,00,46,2.60
2020,10,10,00,47,4.00
2020,10,10,00,48,4.90
2020,10,10,00,49,1.90
2020,10,10,00,50,2.40
2020,10,10,00,51,4.10
2020,10,10,00,52,3.60
2020,10,10,00,53,2.00
2020,10,10,00,54,0.70
2020,10,10,00,55,1.60
2020,10,10,00,56,2.10
2020,10,10,00,57,4.10
2020,10,10,00,58,1.80
2020,10,10,00,59,0.50
2020,10,10,01,00,2.50
2020,10,10,01,01,3.40
2020,10,10,01,02,1.40
2020,10,10,01,03,3.00
2020,10,10,01,04,4.40
2020,10,10,01,05,3.90
2020,10,10,01,06,4.80
2020,10,10,01,07,3.70
2020,10,10,01,08,3.40
2020,10,10,01,09,1.90
2020,10,10,01,10,2.60
2020,10,10,01,11,2.60
2020,10,10,01,12,2.20
2020,10,10,01,13,1.40
2020,10,10,01,14,4.00
2020,10,10,01,15,4.40
2020,10,10,01,16,3.60
2020,10,10,01,17,1.20
2020,10,10,01,18,1.90
2020,10,10,01,19,3.30
2020,10,10,01,20,3.80
2020,10,10,01,21,3.00
2020,10,10,01,22,5.20
2020,10,10,01,23,1.40
2020,10,10,01,24,3.10
2020,10,10,01,25,5.70
2020,10,10,01,26,4.00
2020,10,10,01,27,3.00
2020,10,10,01,28,7.20
2020,10,10,01,29,7.10
2020,10,10,01,30,11.10
2020,10,10,01,31,5.80
2020,10,10,01,32,5.00
2020,10,10,01,33,5.70
2020,10,10,01,34,6.00
2020,10,10,01,35,8.70
2020,10,10,01,36,6.70
2020,10,10,01,37,4.20
2020,10,10,01,38,5.10
2020,10,10,01,39,9.80
2020,10,10,01,40,3.80
2020,10,10,01,41,4.60
2020,10,10,01,42,9.40
2020,10,10,01,43,6.70
2020,10,10,01,44,7.60
2020,10,10,01,45,8.90
2020,10,10,01,46,6.20
2020,10,10,01,47,8.90
2020,10,10,01,48,3.90
2020,10,10,01,49,5.50
2020,10,10,01,50,10.20
2020,10,10,01,51,6.50
2020,10,10,01,52,7.60
2020,10,10,01,53,7.00
2020,10,10,01,54,5.10
2020,10,10,01,55,7.70
2020,10,10,01,56,5.20
2020,10,10,01,57,8.60
2020,10,10,01,58,6.80
2020,10,10,01,59,8.50
2020,10,10,02,00,5.10
2020,10,10,02,01,3.60
2020,10,10,02,02,8.20
2020,10,10,02,03,7.40
2020,10,10,02,04,7.30
2020,10,10,02,05,4.50
2020,10,10,02,06,9.40
2020,10,10,02,07,6.30
2020,10,10,02,08,10.50
2020,10,10,02,09,11.00
2020,10,10,02,10,5.90
2020,10,10,02,11,3.60
2020,10,10,02,12,5.10
2020,10,10,02,13,4.90
2020,10,10,02,14,4.20
2020,10,10,02,15,7.30
2020,10,10,02,16,5.70
2020,10,10,02,17,6.50
2020,10,10,02,18,4.60
2020,10,10,02,19,3.30
2020,10,10,02,20,4.50
2020,10,10,02,21,10.70
2020,10,10,02,22,4.60
2020,10,10,02,23,5.80
2020,10,10,02,24,4.00
2020,10,10,02,25,9.20
2020,10,10,02,26,12.80
2020,10,10,02,27,8.00
2020,10,10,02,28,8.50
2020,10,10,02,29,8.60
2020,10,10,02,30,9.90
2020,10,10,02,31,7.50
2020,10,10,02,32,8.80
2020,10,10,02,33,9.80
2020,10,10,02,34,11.90
2020,10,10,02,35,11.70
2020,10,10,02,36,6.50
2020,10,10,02,37,5.60
2020,10,10,02,38,13.10
2020,10,10,02,39,13.00
2020,10,10,02,40,7.50
2020,10,10,02,41,7.80
2020,10,10,02,42,6.60
2020,10,10,02,43,9.80
2020,10,10,02,44,15.30
2020,10,10,02,45,8.70
2020,10,10,02,46,6.20
2020,10,10,02,47,8.50
2020,10,10,02,48,15.50
2020,10,10,02,49,8.50
2020,10,10,02,50,7.50
2020,10,10,02,51,8.30
2020,10,10,02,52,9.80
2020,10,10,02,53,7.10
2020,10,10,02,54,8.50
2020,10,10,02,55,6.70
2020,10,10,02,56,6.40
2020,10,10,02,57,5.80
2020,10,10,02,58,6.30
2020,10,10,02,59,8.20
2020,10,10,03,00,8.00
2020,10,10,03,01,10.50
2020,10,10,03,02,8.60
2020,10,10,03,03,6.00
2020,10,10,03,04,5.00
2020,10,10,03,05,8.70
2020,10,10,03,06,7.30
2020,10,10,03,07,12.00
2020,10,10,03,08,11.60
2020,10,10,03,09,7.20
2020,10,10,03,10,7.90
2020,10,10,03,11,6.60
2020,10,10,03,12,10.20
2020,10,10,03,13,12.10
2020,10,10,03,14,8.80
2020,10,10,03,15,7.80
2020,10,10,03,16,3.70
2020,10,10,03,17,2.10
2020,10,10,03,18,5.40
2020,10,10,03,19,6.30
2020,10,10,03,20,5.70
2020,10,10,03,21,4.20
2020,10,10,03,22,8.10
2020,10,10,03,23,4.80
2020,10,10,03,24,5.60
2020,10,10,03,25,4.30
2020,10,10,03,26,4.30
2020,10,10,03,27,6.50
2020,10,10,03,28,10.60
2020,10,10,03,29,9.30
2020,10,10,03,30,14.10
2020,10,10,03,31,10.30
2020,10,10,03,32,9.30
2020,10,10,03,33,8.70
2020,10,10,03,34,5.00
2020,10,10,03,35,12.00
2020,10,10,03,36,14.40
2020,10,10,03,37,9.30
2020,10,10,03,38,8.80
2020,10,10,03,39,5.30
2020,10,10,03,40,8.40
2020,10,10,03,41,13.30
2020,10,10,03,42,9.30
2020,10,10,03,43,12.20
2020,10,10,03,44,12.60
2020,10,10,03,45,9.40
2020,10,10,03,46,8.70
2020,10,10,03,47,8.20
2020,10,10,03,48,10.30
2020,10,10,03,49,6.70
2020,10,10,03,50,7.60
2020,10,10,03,51,7.70
2020,10,10,03,52,12.60
2020,10,10,03,53,5.70
2020,10,10,03,54,8.50
2020,10,10,03,55,7.60
2020,10,10,03,56,10.70
2020,10,10,03,57,12.60
2020,10,10,03,58,8.20
2020,10,10,03,59,13.30
2020,10,10,04,00,6.30
2020,10,10,04,01,6.60
2020,10,10,04,02,9.30
2020,10,10,04,03,5.60
2020,10,10,04,04,3.90
2020,10,10,04,05,2.90
2020,10,10,04,06,5.60
2020,10,10,04,07,9.90
2020,10,10,04,08,8.10
2020,10,10,04,09,4.40
2020,10,10,04,10,11.60
2020,10,10,04,11,4.80
2020,10,10,04,12,2.20
2020,10,10,04,13,2.90
2020,10,10,04,14,8.50
2020,10,10,04,15,11.90
2020,10,10,04,16,6.80
2020,10,10,04,17,5.50
2020,10,10,04,18,4.90
2020,10,10,04,19,7.50
2020,10,10,04,20,14.60
2020,10,10,04,21,8.10
2020,10,10,04,22,7.40
2020,10,10,04,23,4.90
2020,10,10,04,24,4.30
2020,10,10,04,25,5.50
2020,10,10,04,26,7.50
2020,10,10,04,27,7.60
2020,10,10,04,28,6.20
2020,10,10,04,29,4.00
2020,10,10,04,30,12.80
2020,10,10,04,31,12.60
2020,10,10,04,32,11.50
2020,10,10,04,33,11.30
2020,10,10,04,34,9.10
2020,10,10,04,35,8.80
2020,10,10,04,36,11.70
2020,10,10,04,37,5.90
2020,10,10,04,38,9.20
2020,10,10,04,39,13.00
2020,10,10,04,40,7.90
2020,10,10,04,41,6.90
2020,10,10,04,42,10.90
2020,10,10,04,43,8.90
2020,10,10,04,44,12.50
2020,10,10,04,45,10.70
2020,10,10,04,46,9.20
2020,10,10,04,47,7.60
2020,10,10,04,48,6.80
2020,10,10,04,49,13.20
2020,10,10,04,50,8.20
2020,10,10,04,51,10.40
2020,10,10,04,52,5.70
2020,10,10,04,53,12.00
2020,10,10,04,54,5.70
2020,10,10,04,55,6.00
2020,10,10,04,56,11.10
2020,10,10,04,57,14.90
2020,10,10,04,58,11.50
2020,10,10,04,59,8.20
2020,10,10,05,00,4.50
2020,10,10,05,01,6.80
2020,10,10,05,02,8.80
2020,10,10,05,03,13.20
2020,10,10,05,04,6.30
2020,10,10,05,05,10.20
2020,10,10,05,06,10.40
2020,10,10,05,07,7.80
2020,10,10,05,08,12.90
2020,10,10,05,09,16.10
2020,10,10,05,10,14.10
2020,10,10,05,11,13.00
2020,10,10,05,12,10.70
2020,10,10,05,13,7.90
2020,10,10,05,14,6.70
2020,10,10,05,15,8.20
2020,10,10,05,16,6.50
2020,10,10,05,17,4.80
2020,10,10,05,18,1.30
2020,10,10,05,19,1.40
2020,10,10,05,20,0.90
2020,10,10,05,21,0.40
2020,10,10,05,22,1.90
2020,10,10,05,23,1.60
2020,10,10,05,24,1.40
2020,10,10,05,25,1.20
2020,10,10,05,26,0.90
2020,10,10,05,27,0.00
2020,10,10,05,28,0.00
2020,10,10,05,29,0.00
2020,10,10,05,30,0.00
2020,10,10,05,31,0.80
2020,10,10,05,32,2.40
2020,10,10,05,33,3.80
2020,10,10,05,34,2.80
2020,10,10,05,35,1.80
2020,10,10,05,36,1.90
2020,10,10,05,37,1.70
2020,10,10,05,38,1.00
2020,10,10,05,39,1.40
2020,10,10,05,40,2.50
2020,10,10,05,41,2.20
2020,10,10,05,42,1.30
2020,10,10,05,43,0.10
2020,10,10,05,44,0.20
2020,10,10,05,45,1.20
2020,10,10,05,46,2.10
2020,10,10,05,47,2.50
2020,10,10,05,48,2.90
2020,10,10,05,49,2.00
2020,10,10,05,50,1.80
2020,10,10,05,51,2.20
2020,10,10,05,52,1.90
2020,10,10,05,53,1.70
2020,10,10,05,54,1.20
2020,10,10,05,55,1.80
2020,10,10,05,56,1.60
2020,10,10,05,57,1.30
2020,10,10,05,58,1.50
2020,10,10,05,59,1.50
2020,10,10,06,00,1.40
2020,10,10,06,01,1.40
2020,10,10,06,02,1.60
2020,10,10,06,03,1.60
2020,10,10,06,04,0.90
2020,10,10,06,05,1.00
2020,10,10,06,06,0.10
2020,10,10,06,07,0.00
2020,10,10,06,08,0.00
2020,10,10,06,09,0.30
2020,10,10,06,10,0.00
2020,10,10,06,11,0.00
2020,10,10,06,12,0.00
2020,10,10,06,13,0.80
2020,10,10,06,14,1.70
2020,10,10,06,15,0.90
2020,10,10,06,16,1.90
2020,10,10,06,17,3.20
2020,10,10,06,18,3.70
2020,10,10,06,19,2.10
2020,10,10,06,20,0.40
2020,10,10,06,21,0.00
2020,10,10,06,22,0.00
2020,10,10,06,23,0.00
2020,10,10,06,24,0.00
2020,10,10,06,25,0.00
2020,10,10,06,26,0.00
2020,10,10,06,27,0.00
2020,10,10,06,28,1.90
2020,10,10,06,29,3.10
2020,10,10,06,30,3.20
2020,10,10,06,31,3.20
2020,10,10,06,32,3.20
2020,10,10,06,33,3.20
2020,10,10,06,34,3.20
2020,10,10,06,35,3.20
2020,10,10,06,36,3.20
2020,10,10,06,37,3.20
2020,10,10,06,38,3.20
2020,10,10,06,39,3.20
2020,10,10,08,37,7.50
2020,10,10,08,38,6.30
2020,10,10,08,39,4.70
2020,10,10,08,40,6.00
2020,10,10,08,41,4.80
2020,10,10,08,42,6.20
2020,10,10,08,43,6.80
2020,10,10,08,44,5.60
2020,10,10,08,45,7.20
2020,10,10,08,46,5.00
2020,10,10,08,47,5.20
2020,10,10,08,48,8.20
2020,10,10,08,49,6.40
2020,10,10,08,50,12.30
2020,10,10,08,51,9.70
2020,10,10,08,52,7.60
2020,10,10,08,53,8.10
2020,10,10,08,54,6.60
2020,10,10,08,55,6.20
2020,10,10,08,56,4.20
2020,10,10,08,57,6.80
2020,10,10,08,58,9.10
2020,10,10,08,59,5.70
2020,10,10,09,00,7.30
2020,10,10,09,01,5.40
2020,10,10,09,02,4.80
2020,10,10,09,03,7.00
2020,10,10,09,04,7.30
2020,10,10,09,05,5.10
2020,10,10,09,06,8.60
2020,10,10,09,07,5.30
2020,10,10,09,08,3.00
2020,10,10,09,09,4.80
2020,10,10,09,10,5.20
2020,10,10,09,11,5.90
2020,10,10,09,12,2.70
2020,10,10,09,13,6.50
2020,10,10,09,14,8.10
2020,10,10,09,15,8.10
2020,10,10,09,16,7.60
2020,10,10,09,17,9.90
2020,10,10,09,18,7.40
2020,10,10,09,19,5.90
2020,10,10,09,20,7.10
2020,10,10,09,21,9.50
2020,10,10,09,22,12.20
2020,10,10,09,23,5.30
2020,10,10,09,24,7.80
2020,10,10,09,25,7.20
2020,10,10,09,26,5.10
2020,10,10,09,27,5.70
2020,10,10,09,28,8.30
2020,10,10,09,29,5.20
2020,10,10,09,30,4.20
2020,10,10,09,31,5.80
2020,10,10,09,32,4.70
2020,10,10,09,33,6.30
2020,10,10,09,34,8.20
2020,10,10,09,35,6.00
2020,10,10,09,36,3.70
2020,10,10,09,37,5.10
2020,10,10,09,38,4.80
2020,10,10,09,39,4.50
2020,10,10,09,40,8.60
2020,10,10,09,41,5.10
2020,10,10,09,42,6.40
2020,10,10,09,43,6.20
2020,10,10,09,44,2.80
2020,10,10,09,45,4.10
2020,10,10,09,46,3.30
2020,10,10,09,47,3.80
2020,10,10,09,48,4.80
2020,10,10,09,49,4.50
2020,10,10,09,50,3.80
2020,10,10,09,51,4.00
2020,10,10,09,52,4.40
2020,10,10,09,53,6.50
2020,10,10,09,54,4.00
2020,10,10,09,55,3.40
2020,10,10,09,56,3.90
2020,10,10,09,57,5.80
2020,10,10,09,58,4.30
2020,10,10,09,59,5.60
2020,10,10,10,00,4.90
2020,10,10,10,01,9.10
2020,10,10,10,02,5.20
2020,10,10,10,03,2.90
2020,10,10,10,04,5.50
2020,10,10,10,05,7.40
2020,10,10,10,06,5.20
2020,10,10,10,07,5.60
2020,10,10,10,08,5.10
2020,10,10,10,09,5.60
2020,10,10,10,10,4.10
2020,10,10,10,11,5.20
2020,10,10,10,12,7.00
2020,10,10,10,13,6.70
2020,10,10,10,14,6.70
2020,10,10,10,15,4.40
2020,10,10,10,16,5.20
2020,10,10,10,17,4.10
2020,10,10,10,18,7.70
2020,10,10,10,19,8.70
2020,10,10,10,20,9.40
2020,10,10,10,21,8.10
2020,10,10,10,22,7.00
2020,10,10,10,23,5.80
2020,10,10,10,24,5.50
2020,10,10,10,25,4.70
2020,10,10,10,26,8.80
2020,10,10,10,27,10.40
2020,10,10,10,28,8.60
2020,10,10,10,29,9.10
2020,10,10,10,30,7.50
2020,10,10,10,31,6.00
2020,10,10,10,32,4.90
2020,10,10,10,33,4.10
2020,10,10,10,34,9.60
2020,10,10,10,35,11.40
2020,10,10,10,36,9.70
2020,10,10,10,37,12.20
2020,10,10,10,38,7.90
2020,10,10,10,39,9.40
2020,10,10,10,40,9.60
2020,10,10,10,41,8.50
2020,10,10,10,42,6.90
2020,10,10,10,43,5.50
2020,10,10,10,44,6.10
2020,10,10,10,45,6.60
2020,10,10,10,46,4.60
2020,10,10,10,47,7.30
2020,10,10,10,48,4.50
2020,10,10,10,49,6.50
2020,10,10,10,50,6.30
2020,10,10,10,51,4.90
2020,10,10,10,52,5.70
2020,10,10,10,53,5.30
2020,10,10,10,54,7.50
2020,10,10,10,55,7.70
2020,10,10,10,56,5.70
2020,10,10,10,57,7.00
2020,10,10,10,58,6.40
2020,10,10,10,59,6.20
2020,10,10,11,00,5.50
2020,10,10,11,01,5.50
2020,10,10,11,02,4.10
2020,10,10,11,03,4.30
2020,10,10,11,04,2.50
2020,10,10,11,05,7.00
2020,10,10,11,06,7.50
2020,10,10,11,07,8.60
2020,10,10,11,08,9.10
2020,10,10,11,09,8.60
2020,10,10,11,10,9.40
2020,10,10,11,11,5.20
2020,10,10,11,12,4.50
2020,10,10,11,13,8.20
2020,10,10,11,14,6.40
2020,10,10,11,15,6.10
2020,10,10,11,16,5.70
2020,10,10,11,17,5.10
2020,10,10,11,18,5.90
2020,10,10,11,19,5.20
2020,10,10,11,20,5.40
2020,10,10,11,21,7.00
2020,10,10,11,22,5.80
2020,10,10,11,23,4.40
2020,10,10,11,24,2.70
2020,10,10,11,25,3.00
2020,10,10,11,26,1.70
2020,10,10,11,27,2.40
2020,10,10,11,28,4.20
2020,10,10,11,29,2.10
2020,10,10,11,30,2.30
2020,10,10,11,31,3.20
2020,10,10,11,32,3.20
2020,10,10,11,33,1.40
2020,10,10,11,34,0.20
2020,10,10,11,35,2.00
2020,10,10,11,36,1.20
2020,10,10,11,37,2.90
2020,10,10,11,38,3.10
2020,10,10,11,39,1.70
2020,10,10,11,40,2.70
2020,10,10,11,41,3.30
2020,10,10,11,42,3.60
2020,10,10,11,43,4.20
2020,10,10,11,44,4.70
2020,10,10,11,45,2.70
2020,10,10,11,46,2.60
2020,10,10,11,47,2.50
2020,10,10,11,48,3.90
2020,10,10,11,49,2.80
2020,10,10,11,50,1.30
2020,10,10,11,51,3.20
2020,10,10,11,52,2.80
2020,10,10,11,53,2.50
2020,10,10,11,54,1.20
2020,10,10,11,55,0.90
2020,10,10,11,56,2.40
2020,10,10,11,57,1.80
2020,10,10,11,58,2.90
2020,10,10,11,59,5.70
2020,10,10,12,00,4.90
2020,10,10,12,01,2.20
2020,10,10,12,02,3.00
2020,10,10,12,03,3.00
2020,10,10,12,04,2.90
2020,10,10,12,05,3.00
2020,10,10,12,06,2.90
2020,10,10,12,07,1.70
2020,10,10,12,08,4.80
2020,10,10,12,09,2.50
2020,10,10,12,10,0.80
2020,10,10,12,11,0.40
2020,10,10,12,12,2.80
2020,10,10,12,13,1.30
2020,10,10,12,14,0.80
2020,10,10,12,15,2.10
2020,10,10,12,16,0.10
2020,10,10,12,17,2.00
2020,10,10,12,18,2.40
2020,10,10,12,19,1.10
2020,10,10,12,20,2.20
2020,10,10,12,21,0.80
2020,10,10,12,22,2.30
2020,10,10,12,23,2.20
2020,10,10,12,24,5.30
2020,10,10,12,25,4.40
2020,10,10,12,26,2.00
2020,10,10,12,27,4.00
2020,10,10,12,28,1.90
2020,10,10,12,29,1.40
2020,10,10,12,30,4.40
2020,10,10,12,31,4.10
2020,10,10,12,32,3.50
2020,10,10,12,33,2.10
2020,10,10,12,34,4.30
2020,10,10,12,35,6.60
2020,10,10,12,36,3.80
2020,10,10,12,37,4.30
2020,10,10,12,38,1.50
2020,10,10,12,39,1.50
2020,10,10,12,40,2.90
2020,10,10,12,41,6.40
2020,10,10,12,42,3.60
2020,10,10,12,43,3.00
2020,10,10,12,44,1.20
2020,10,10,12,45,1.50
2020,10,10,12,46,3.40
2020,10,10,12,47,4.70
2020,10,10,12,48,1.70
2020,10,10,12,49,4.40
2020,10,10,12,50,3.40
2020,10,10,12,51,4.30
2020,10,10,12,52,3.40
2020,10,10,12,53,3.20
2020,10,10,12,54,2.00
2020,10,10,12,55,0.70
2020,10,10,12,56,0.30
2020,10,10,12,57,0.80
2020,10,10,12,58,1.30
2020,10,10,12,59,2.80
2020,10,10,13,00,5.10
2020,10,10,13,01,4.10
2020,10,10,13,02,0.20
2020,10,10,13,03,1.40
2020,10,10,13,04,3.70
2020,10,10,13,05,1.90
2020,10,10,13,06,3.00
2020,10,10,13,07,2.20
2020,10,10,13,08,1.10
2020,10,10,13,09,2.60
2020,10,10,13,10,0.50
2020,10,10,13,11,1.10
2020,10,10,13,12,1.10
2020,10,10,13,13,3.10
2020,10,10,13,14,4.80
2020,10,10,13,15,4.50
2020,10,10,13,16,1.10
2020,10,10,13,17,1.00
2020,10,10,13,18,1.50
2020,10,10,13,19,2.20
2020,10,10,13,20,0.90
2020,10,10,13,21,0.00
2020,10,10,13,22,0.20
2020,10,10,13,23,1.00
2020,10,10,13,24,1.40
2020,10,10,13,25,0.80
2020,10,10,13,26,3.30
2020,10,10,13,27,0.70
2020,10,10,13,28,2.40
2020,10,10,13,29,2.90
2020,10,10,13,30,1.60
2020,10,10,13,31,3.30
2020,10,10,13,32,3.70
2020,10,10,13,33,3.40
2020,10,10,13,34,5.40
2020,10,10,13,35,4.50
2020,10,10,13,36,3.50
2020,10,10,13,37,4.90
2020,10,10,13,38,6.40
2020,10,10,13,39,3.20
2020,10,10,13,40,0.90
2020,10,10,13,41,0.40
2020,10,10,13,42,3.80
2020,10,10,13,43,3.00
2020,10,10,13,44,3.20
2020,10,10,13,45,1.90
2020,10,10,13,46,2.20
2020,10,10,13,47,2.80
2020,10,10,13,48,3.00
2020,10,10,13,49,0.80
2020,10,10,13,50,1.90
2020,10,10,13,51,3.20
2020,10,10,13,52,0.90
2020,10,10,13,53,4.20
2020,10,10,13,54,2.50
2020,10,10,13,55,3.20
2020,10,10,13,56,4.00
2020,10,10,13,57,4.30
2020,10,10,13,58,3.40
2020,10,10,13,59,3.50
2020,10,10,14,00,4.10
2020,10,10,14,01,6.00
2020,10,10,14,02,5.90
2020,10,10,14,03,4.60
2020,10,10,14,04,1.50
2020,10,10,14,05,0.60
2020,10,10,14,06,0.00
2020,10,10,14,07,1.20
2020,10,10,14,08,1.30
2020,10,10,14,09,1.10
2020,10,10,14,10,1.20
2020,10,10,14,11,0.70
2020,10,10,14,12,0.90
2020,10,10,14,13,1.90
2020,10,10,14,14,0.20
2020,10,10,14,15,1.60
2020,10,10,14,16,4.00
2020,10,10,14,17,3.00
2020,10,10,14,18,1.00
2020,10,10,14,19,2.40
2020,10,10,14,20,2.50
2020,10,10,14,21,3.90
2020,10,10,14,22,4.50
2020,10,10,14,23,3.60
2020,10,10,14,24,2.50
2020,10,10,14,25,1.90
2020,10,10,14,26,3.50
2020,10,10,14,27,2.80
2020,10,10,14,28,4.00
2020,10,10,14,29,2.10
2020,10,10,14,30,4.20
2020,10,10,14,31,4.40
2020,10,10,14,32,5.00
2020,10,10,14,33,4.70
2020,10,10,14,34,2.80
2020,10,10,14,35,1.50
2020,10,10,14,36,4.00
2020,10,10,14,37,3.70
2020,10,10,14,38,4.50
2020,10,10,14,39,2.40
2020,10,10,14,40,3.40
2020,10,10,14,41,4.80
2020,10,10,14,42,4.60
2020,10,10,14,43,3.80
2020,10,10,14,44,3.70
2020,10,10,14,45,3.50
2020,10,10,14,46,2.80
2020,10,10,14,47,4.20
2020,10,10,14,48,3.70
2020,10,10,14,49,1.60
2020,10,10,14,50,2.00
2020,10,10,14,51,2.10
2020,10,10,14,52,3.90
2020,10,10,14,53,2.50
2020,10,10,14,54,1.30
2020,10,10,14,55,1.60
2020,10,10,14,56,2.10
2020,10,10,14,57,1.00
2020,10,10,14,58,2.70
2020,10,10,14,59,3.00
2020,10,10,15,00,1.40
2020,10,10,15,01,1.40
2020,10,10,15,02,3.50
2020,10,10,15,03,3.60
2020,10,10,15,04,3.40
2020,10,10,15,05,2.60
2020,10,10,15,06,2.10
2020,10,10,15,07,1.20
2020,10,10,15,08,4.10
2020,10,10,15,09,2.40
2020,10,10,15,10,2.00
2020,10,10,15,11,1.00
2020,10,10,15,12,1.70
2020,10,10,15,13,3.90
2020,10,10,15,14,4.50
2020,10,10,15,15,1.10
2020,10,10,15,16,2.50
2020,10,10,15,17,4.20
2020,10,10,15,18,3.70
2020,10,10,15,19,2.10
2020,10,10,15,20,3.30
2020,10,10,15,21,3.30
2020,10,10,15,22,3.80
2020,10,10,15,23,1.70
2020,10,10,15,24,2.50
2020,10,10,15,25,1.70
2020,10,10,15,26,0.70
2020,10,10,15,27,2.50
2020,10,10,15,28,4.40
2020,10,10,15,29,1.60
2020,10,10,15,30,2.30
2020,10,10,15,31,1.60
2020,10,10,15,32,1.50
2020,10,10,15,33,3.80
2020,10,10,15,34,3.90
2020,10,10,15,35,3.80
2020,10,10,15,36,1.70
2020,10,10,15,37,2.00
2020,10,10,15,38,2.00
2020,10,10,15,39,3.30
2020,10,10,15,40,4.20
2020,10,10,15,41,2.20
2020,10,10,15,42,2.40
2020,10,10,15,43,3.40
2020,10,10,15,44,3.10
2020,10,10,15,45,2.90
2020,10,10,15,46,2.50
2020,10,10,15,47,2.50
2020,10,10,15,48,4.90
2020,10,10,15,49,3.40
2020,10,10,15,50,2.10
2020,10,10,15,51,2.60
2020,10,10,15,52,2.00
2020,10,10,15,53,6.50
2020,10,10,15,54,4.80
2020,10,10,15,55,2.80
2020,10,10,15,56,3.90
2020,10,10,15,57,2.30
2020,10,10,15,58,2.80
2020,10,10,15,59,5.60
2020,10,10,16,00,4.10
2020,10,10,16,01,4.20
2020,10,10,16,02,3.20
2020,10,10,16,03,3.70
2020,10,10,16,04,3.30
2020,10,10,16,05,3.30
2020,10,10,16,06,3.10
2020,10,10,16,07,1.60
2020,10,10,16,08,0.00
2020,10,10,16,09,1.10
2020,10,10,16,10,1.80
2020,10,10,16,11,0.20
2020,10,10,16,12,2.60
2020,10,10,16,13,0.70
2020,10,10,16,14,1.90
2020,10,10,16,15,2.30
2020,10,10,16,16,3.40
2020,10,10,16,17,3.20
2020,10,10,16,18,1.90
2020,10,10,16,19,1.30
2020,10,10,16,20,1.90
2020,10,10,16,21,2.80
2020,10,10,16,22,3.40
2020,10,10,16,23,1.70
2020,10,10,16,24,1.40
2020,10,10,16,25,1.40
2020,10,10,16,26,2.70
2020,10,10,16,27,0.30
2020,10,10,16,28,1.50
2020,10,10,16,29,3.20
2020,10,10,16,30,2.20
2020,10,10,16,31,5.30
2020,10,10,16,32,2.50
2020,10,10,16,33,1.20
2020,10,10,16,34,1.40
2020,10,10,16,35,4.00
2020,10,10,16,36,4.50
2020,10,10,16,37,2.40
2020,10,10,16,38,4.40
2020,10,10,16,39,3.10
2020,10,10,16,40,2.70
2020,10,10,16,41,2.20
2020,10,10,16,42,5.60
2020,10,10,16,43,5.00
2020,10,10,16,44,1.30
2020,10,10,16,45,1.70
2020,10,10,16,46,3.80
2020,10,10,16,47,2.60
2020,10,10,16,48,3.60
2020,10,10,16,49,3.80
2020,10,10,16,50,4.00
2020,10,10,16,51,2.10
2020,10,10,16,52,3.90
2020,10,10,16,53,2.10
2020,10,10,16,54,0.70
2020,10,10,16,55,2.80
2020,10,10,16,56,2.80
2020,10,10,16,57,2.20
2020,10,10,16,58,1.60
2020,10,10,16,59,0.20
2020,10,10,17,00,0.10
2020,10,10,17,01,0.60
2020,10,10,17,02,1.80
2020,10,10,17,03,2.40
2020,10,10,17,04,2.70
2020,10,10,17,05,2.50
2020,10,10,17,06,1.40
2020,10,10,17,07,1.30
2020,10,10,17,08,5.00
2020,10,10,17,09,5.60
2020,10,10,17,10,4.90
2020,10,10,17,11,3.40
2020,10,10,17,12,0.60
2020,10,10,17,13,1.70
2020,10,10,17,14,0.60
2020,10,10,17,15,2.00
2020,10,10,17,16,3.00
2020,10,10,17,17,3.90
2020,10,10,17,18,4.90
2020,10,10,17,19,2.40
2020,10,10,17,20,3.40
2020,10,10,17,21,0.50
2020,10,10,17,22,2.50
2020,10,10,17,23,3.60
2020,10,10,17,24,3.20
2020,10,10,17,25,4.00
2020,10,10,17,26,2.60
2020,10,10,17,27,4.20
2020,10,10,17,28,1.80
2020,10,10,17,29,1.30
2020,10,10,17,30,1.90
2020,10,10,17,31,2.60
2020,10,10,17,32,3.10
2020,10,10,17,33,1.90
2020,10,10,17,34,1.70
2020,10,10,17,35,1.40
2020,10,10,17,36,1.60
2020,10,10,17,37,1.70
2020,10,10,17,38,1.60
2020,10,10,17,39,1.70
2020,10,10,17,40,0.00
2020,10,10,17,41,0.60
2020,10,10,17,42,0.90
2020,10,10,17,43,1.50
2020,10,10,17,44,0.40
2020,10,10,17,45,0.00
2020,10,10,17,46,0.00
2020,10,10,17,47,0.00
2020,10,10,17,48,0.00
2020,10,10,17,49,0.00
2020,10,10,17,50,0.20
2020,10,10,17,51,1.10
2020,10,10,17,52,1.30
2020,10,10,17,53,0.90
2020,10,10,17,54,0.00
2020,10,10,17,55,0.00
2020,10,10,17,56,0.00
2020,10,10,17,57,0.00
2020,10,10,17,58,0.00
2020,10,10,17,59,0.00
2020,10,10,18,00,0.00
2020,10,10,18,01,0.00
2020,10,10,18,02,0.00
2020,10,10,18,03,0.00
2020,10,10,18,04,0.10
2020,10,10,18,05,1.70
2020,10,10,18,06,1.80
2020,10,10,18,07,2.30
2020,10,10,18,08,2.00
2020,10,10,18,09,0.90
2020,10,10,18,10,0.90
2020,10,10,18,11,0.80
2020,10,10,18,12,1.10
2020,10,10,18,13,0.30
2020,10,10,18,14,0.90
2020,10,10,18,15,1.60
2020,10,10,18,16,1.80
2020,10,10,18,17,2.00
2020,10,10,18,18,1.60
2020,10,10,18,19,1.70
2020,10,10,18,20,1.70
2020,10,10,18,21,1.60
2020,10,10,18,22,0.90
2020,10,10,18,23,1.00
2020,10,10,18,24,1.30
2020,10,10,18,25,1.10
2020,10,10,18,26,0.30
2020,10,10,18,27,0.00
2020,10,10,18,28,0.90
2020,10,10,18,29,1.20
2020,10,10,18,30,1.00
2020,10,10,18,31,2.10
2020,10,10,18,32,2.20
2020,10,10,18,33,1.60
2020,10,10,18,34,1.60
2020,10,10,18,35,1.20
2020,10,10,18,36,1.70
2020,10,10,18,37,1.70
2020,10,10,18,38,2.70
2020,10,10,18,39,4.40
2020,10,10,18,40,3.90
2020,10,10,18,41,2.40
2020,10,10,18,42,1.70
2020,10,10,18,43,1.80
2020,10,10,18,44,2.10
2020,10,10,18,45,2.70
2020,10,10,18,46,3.00
2020,10,10,18,47,3.40
2020,10,10,18,48,2.80
2020,10,10,18,49,2.40
2020,10,10,18,50,3.50
2020,10,10,18,51,3.00
2020,10,10,18,52,2.40
2020,10,10,18,53,3.40
2020,10,10,18,54,5.60
2020,10,10,18,55,4.80
2020,10,10,18,56,4.50
2020,10,10,18,57,4.40
2020,10,10,18,58,7.90
2020,10,10,18,59,6.10
2020,10,10,19,00,7.30
2020,10,10,19,01,5.10
2020,10,10,19,02,4.60
2020,10,10,19,03,3.00
2020,10,10,19,04,2.60
2020,10,10,19,05,2.30
2020,10,10,19,06,3.30
2020,10,10,19,07,3.50
2020,10,10,19,08,3.80
2020,10,10,19,09,4.40
2020,10,10,19,10,5.40
2020,10,10,19,11,7.50
2020,10,10,19,12,5.70
2020,10,10,19,13,7.00
2020,10,10,19,14,5.90
2020,10,10,19,15,6.20
2020,10,10,19,16,6.80
2020,10,10,19,17,4.40
2020,10,10,19,18,6.30
2020,10,10,19,19,7.80
2020,10,10,19,20,3.30
2020,10,10,19,21,3.70
2020,10,10,19,22,8.40
2020,10,10,19,23,4.50
2020,10,10,19,24,4.10
2020,10,10,19,25,4.50
2020,10,10,19,26,3.70
2020,10,10,19,27,4.20
2020,10,10,19,28,3.20
2020,10,10,19,29,4.10
2020,10,10,19,30,7.80
2020,10,10,19,31,6.90
2020,10,10,19,32,6.10
2020,10,10,19,33,3.40
2020,10,10,19,34,1.80
2020,10,10,19,35,1.20
2020,10,10,19,36,1.30
2020,10,10,19,37,3.50
2020,10,10,19,38,2.40
2020,10,10,19,39,2.70
2020,10,10,19,40,1.40
2020,10,10,19,41,5.30
2020,10,10,19,42,5.10
2020,10,10,19,43,2.20
2020,10,10,19,44,4.20
2020,10,10,19,45,4.10
2020,10,10,19,46,3.00
2020,10,10,19,47,4.80
2020,10,10,19,48,5.70
2020,10,10,19,49,4.90
2020,10,10,19,50,5.10
2020,10,10,19,51,5.30
2020,10,10,19,52,4.20
2020,10,10,19,53,2.90
2020,10,10,19,54,2.90
2020,10,10,19,55,3.80
2020,10,10,19,56,1.60
2020,10,10,19,57,1.70
2020,10,10,19,58,2.30
2020,10,10,19,59,3.60
2020,10,10,20,00,2.50